Stockton, CA

7:17 PM PDT on September 26, 2016 (GMT -0700)
Stockton Metro

Weather History for KSCK - July, 2014

Change the Weather History Date:

Wednesday, July 2, 2014

  Actual Average Record
Temperature  
Mean Temperature 76 °F -  
Max Temperature 93 °F 92 °F 110 °F (1950)
Min Temperature 58 °F 59 °F 50 °F (1956)
Degree Days  
Heating Degree Days 0 0  
Month to date heating degree days 0 0  
Since 1 June heating degree days 0 7  
Since 1 July heating degree days 0 0  
Cooling Degree Days 11 11  
Month to date cooling degree days 25 22  
Year to date cooling degree days 483 371  
Since 1 June cooling degree days 300 252  
Growing Degree Days 25 (Base 50)    
Moisture  
Dew Point 55 °F    
Average Humidity 58    
Maximum Humidity 87    
Minimum Humidity 28    
Precipitation  
Precipitation 0.00 in 0.00 in 0.50 in (1980)
Month to date precipitation 0.00 0.00  
Year to date precipitation 5.80 9.03  
Since 1 July precipitation 0.00  
Snow  
Snow 0.00 in - - ()
Month to date snowfall 0.0  
Since 1 June snowfall 0.0  
Since 1 July snowfall 0.0  
Snow Depth -    
Sea Level Pressure  
Sea Level Pressure 29.80 in    
Wind  
Wind Speed 9 mph (NW)    
Max Wind Speed 14 mph    
Max Gust Speed 20 mph    
Visibility 10 miles    
Events      
T = Trace of Precipitation, MM = Missing Value Source: NWS Daily Summary

Daily Weather History Graph

Daily Weather History Graph

Search for Another Location

Airport or City:

Trip Planner

Search our weather history database for the weather conditions in past years. The results will help you decide how hot, cold, wet, or windy it might be!

Date:

Astronomy

Jul. 02, 2014 Rise Set
Actual Time 5:46 AM PDT 8:30 PM PDT
Civil Twilight 5:15 AM PDT 9:02 PM PDT
Nautical Twilight 4:36 AM PDT 9:41 PM PDT
Astronomical Twilight 3:52 AM PDT 10:25 PM PDT
Moon 10:49 AM PDT (7/2) 11:32 PM PDT (7/2)
Length of Visible Light 15h 46m
Length of Day
14h 44m
Waxing Crescent, 25% of the Moon is Illuminated
Jul 2
Waxing Crescent
Jul 5
First Quarter
Jul 12
Full
Jul 18
Last Quarter
Jul 26
New

Hourly Weather History & Observations

Time (PDT) Temp. Heat Index Dew Point Humidity Pressure Visibility Wind Dir Wind Speed Gust Speed Precip Events Conditions
12:55 AM 64.9 °F - 54.0 °F 68% 29.77 in 10.0 mi North 8.1 mph - N/A   Clear
1:55 AM 63.0 °F - 54.0 °F 72% 29.78 in 10.0 mi NW 10.4 mph - N/A   Clear
2:55 AM 62.1 °F - 55.0 °F 78% 29.77 in 10.0 mi NW 9.2 mph - N/A   Clear
3:55 AM 60.1 °F - 55.0 °F 83% 29.77 in 10.0 mi WNW 5.8 mph - N/A   Clear
4:55 AM 60.1 °F - 55.0 °F 83% 29.78 in 10.0 mi NW 6.9 mph - N/A   Clear
5:55 AM 59.0 °F - 55.0 °F 87% 29.80 in 10.0 mi North 3.5 mph - N/A   Clear
6:55 AM 62.1 °F - 55.9 °F 80% 29.81 in 10.0 mi NNW 5.8 mph - N/A   Clear
7:55 AM 64.0 °F - 55.9 °F 75% 29.82 in 10.0 mi NNW 5.8 mph - N/A   Clear
8:55 AM 68.0 °F - 55.9 °F 65% 29.82 in 10.0 mi NNW 8.1 mph - N/A   Clear
9:55 AM 73.0 °F - 55.9 °F 55% 29.83 in 10.0 mi NNW 4.6 mph - N/A   Clear
10:55 AM 77.0 °F - 55.9 °F 48% 29.83 in 10.0 mi WNW 10.4 mph - N/A   Clear
11:55 AM 81.0 °F 80.8 °F 55.9 °F 42% 29.83 in 10.0 mi WNW 6.9 mph - N/A   Clear
12:55 PM 84.9 °F 83.6 °F 55.0 °F 36% 29.82 in 10.0 mi West 10.4 mph - N/A   Clear
1:55 PM 87.8 °F 86.1 °F 55.4 °F 33% 29.81 in 10.0 mi NW 8.1 mph - N/A   Clear
2:55 PM 90.0 °F 87.9 °F 55.0 °F 30% 29.79 in 10.0 mi WNW 8.1 mph - N/A   Clear
3:55 PM 93.0 °F 91.1 °F 55.0 °F 28% 29.78 in 10.0 mi NW 10.4 mph - N/A   Clear
4:55 PM 91.0 °F 89.7 °F 57.0 °F 32% 29.77 in 10.0 mi WNW 11.5 mph 17.3 mph N/A   Clear
5:55 PM 91.0 °F 89.7 °F 57.0 °F 32% 29.76 in 10.0 mi WNW 10.4 mph - N/A   Clear
6:55 PM 88.0 °F 86.5 °F 55.9 °F 34% 29.77 in 10.0 mi West 16.1 mph - N/A   Clear
7:55 PM 80.1 °F 80.0 °F 54.0 °F 40% 29.78 in 10.0 mi West 17.3 mph - N/A   Clear
8:55 PM 75.0 °F - 53.1 °F 46% 29.78 in 10.0 mi West 17.3 mph 25.3 mph N/A   Clear
9:55 PM 71.1 °F - 51.1 °F 49% 29.80 in 10.0 mi West 11.5 mph 20.7 mph N/A   Clear
10:55 PM 68.0 °F - 52.0 °F 56% 29.81 in 10.0 mi West 15.0 mph - N/A   Clear
11:55 PM 66.9 °F - 52.0 °F 59% 29.82 in 10.0 mi West 10.4 mph - N/A   Clear